Rennes, France

2:46 AM CEST on August 20, 2017 (GMT +0200)
Saint Jacques

Weather History for LFRN - February, 2013

Change the Weather History Date:

Friday, February 15, 2013

  Actual Average Record
Temperature  
Mean Temperature 43 °F -  
Max Temperature 53 °F 50 °F 64 °F (1998)
Min Temperature 33 °F 38 °F 26 °F (2003)
Degree Days  
Heating Degree Days 22    
Moisture  
Dew Point 39 °F    
Average Humidity 83    
Maximum Humidity 100    
Minimum Humidity 62    
Precipitation  
Precipitation 0.00 in - - ()
Sea Level Pressure  
Sea Level Pressure 30.17 in    
Wind  
Wind Speed 4 mph ()    
Max Wind Speed 7 mph    
Max Gust Speed -    
Visibility 5.1 miles    
Events Fog    
Averages and records for this station are not official NWS values.
T = Trace of Precipitation, MM = Missing Value Source: Averaged Metar Reports

Daily Weather History Graph

Daily Weather History Graph

Search for Another Location

Airport or City:

Trip Planner

Search our weather history database for the weather conditions in past years. The results will help you decide how hot, cold, wet, or windy it might be!

Date:

Astronomy

Feb. 15, 2013 Rise Set
Actual Time 8:13 AM CET 6:29 PM CET
Civil Twilight 7:41 AM CET 7:01 PM CET
Nautical Twilight 7:05 AM CET 7:37 PM CET
Astronomical Twilight 6:29 AM CET 8:13 PM CET
Moon 10:12 AM CET (2/15) No Moon Set
Length of Visible Light 11h 20m
Length of Day
10h 16m
Waxing Crescent, 28% of the Moon is Illuminated
Feb 15
Waxing Crescent
Feb 17
First Quarter
Feb 25
Full
Mar 4
Last Quarter
Mar 11
New

Hourly Weather History & Observations

Time (CET) Temp. Windchill Dew Point Humidity Pressure Visibility Wind Dir Wind Speed Gust Speed Precip Events Conditions
12:00 AM 39.2 °F 34.2 °F 37.4 °F 93% 30.09 in 6.2 mi West 6.9 mph - N/A   Unknown
12:30 AM 39.2 °F 34.2 °F 37.4 °F 93% 30.09 in 6.2 mi West 6.9 mph - N/A   Partly Cloudy
1:00 AM 40 °F - 38 °F 89% 30.13 in 22 mi West 5.8 mph - -   Clear
1:00 AM 41.0 °F 37.1 °F 37.4 °F 87% 30.12 in 6.2 mi West 5.8 mph - N/A   Mostly Cloudy
1:30 AM 41.0 °F 36.4 °F 37.4 °F 87% 30.12 in 6.2 mi West 6.9 mph - N/A   Mostly Cloudy
2:00 AM 39.2 °F 34.2 °F 37.4 °F 93% 30.12 in 6.2 mi West 6.9 mph - N/A   Scattered Clouds
2:30 AM 39.2 °F 35.0 °F 37.4 °F 93% 30.12 in 6.2 mi West 5.8 mph - N/A   Partly Cloudy
3:00 AM 39.2 °F 34.2 °F 37.4 °F 93% 30.12 in 6.2 mi West 6.9 mph - N/A   Unknown
3:30 AM 39.2 °F - 37.4 °F 93% 30.12 in 6.2 mi WNW 2.3 mph - N/A   Unknown
4:00 AM 37.4 °F - 35.6 °F 93% 30.12 in 3.7 mi Calm Calm - N/A   Unknown
4:30 AM 37.4 °F - 35.6 °F 93% 30.12 in 5.0 mi WSW 1.2 mph - N/A   Unknown
5:00 AM 35.6 °F - 35.6 °F 100% 30.12 in 4.3 mi Calm Calm - N/A   Partly Cloudy
5:30 AM 35.6 °F - 33.8 °F 93% 30.12 in 1.4 mi West 1.2 mph - N/A Fog Patches of Fog
6:00 AM 35.6 °F - 35.6 °F 100% 30.15 in 0.3 mi West 1.2 mph - N/A Fog Fog
6:30 AM 35.6 °F - 33.8 °F 93% 30.15 in - Calm Calm - N/A   Partly Cloudy
7:00 AM 35 °F - 34 °F 95% 30.17 in 0 mi West 2.3 mph - - Fog Partial Fog
7:00 AM 35.6 °F - 33.8 °F 93% 30.15 in 0.2 mi West 2.3 mph - N/A Fog Fog
7:30 AM 33.8 °F - 32.0 °F 93% 30.15 in 0.1 mi Calm Calm - N/A Fog Fog
8:00 AM 33.8 °F - 32.0 °F 93% 30.15 in 0.1 mi WSW 1.2 mph - N/A Fog Fog
8:30 AM 33.8 °F - 33.8 °F 100% 30.18 in 0.2 mi Calm Calm - N/A Fog Fog
9:00 AM 35.6 °F - 35.6 °F 100% 30.18 in 1.4 mi Calm Calm - N/A Fog Patches of Fog
9:30 AM 37.4 °F - 35.6 °F 93% 30.18 in 3.1 mi Variable 2.3 mph - N/A   Mist
10:00 AM 39.2 °F - 39.2 °F 100% 30.18 in 4.3 mi Calm Calm - N/A   Unknown
10:30 AM 42.8 °F - 42.8 °F 100% 30.18 in 6.2 mi Variable 2.3 mph - N/A   Unknown
11:00 AM 44.6 °F 40.7 °F 42.8 °F 93% 30.18 in 6.2 mi WSW 6.9 mph - N/A   Unknown
11:30 AM 48.2 °F - 42.8 °F 82% 30.21 in 6.2 mi West 6.9 mph - N/A   Unknown
12:00 PM 50.0 °F - 42.8 °F 76% 30.21 in 6.2 mi WNW 5.8 mph - N/A   Unknown
12:30 PM 50.0 °F - 42.8 °F 76% 30.21 in 6.2 mi WNW 4.6 mph - N/A   Mostly Cloudy
1:00 PM 50 °F - 42 °F 65% 30.22 in 11 mi WNW 4.6 mph - -   Clear
1:00 PM 50.0 °F - 41.0 °F 71% 30.21 in 6.2 mi WNW 4.6 mph - N/A   Mostly Cloudy
1:30 PM 48.2 °F - 41.0 °F 76% 30.21 in 6.2 mi WNW 5.8 mph - N/A   Unknown
2:00 PM 51.8 °F - 41.0 °F 67% 30.18 in 6.2 mi WNW 5.8 mph - N/A   Unknown
2:30 PM 53.6 °F - 41.0 °F 62% 30.18 in 6.2 mi West 4.6 mph - N/A   Overcast
3:00 PM 51.8 °F - 41.0 °F 67% 30.18 in 6.2 mi West 6.9 mph - N/A   Mostly Cloudy
3:30 PM 50.0 °F - 39.2 °F 66% 30.18 in 6.2 mi WSW 5.8 mph - N/A   Overcast
4:00 PM 50.0 °F - 39.2 °F 66% 30.18 in 6.2 mi West 3.5 mph - N/A   Unknown
4:30 PM 50.0 °F - 39.2 °F 66% 30.18 in 6.2 mi WSW 2.3 mph - N/A   Unknown
5:00 PM 50.0 °F - 41.0 °F 71% 30.18 in 6.2 mi Variable 3.5 mph - N/A   Overcast
5:30 PM 50.0 °F - 41.0 °F 71% 30.18 in 6.2 mi NW 2.3 mph - N/A   Unknown
6:00 PM 50.0 °F - 41.0 °F 71% 30.18 in 6.2 mi NW 2.3 mph - N/A   Overcast
6:30 PM 48.2 °F - 41.0 °F 76% 30.21 in 6.2 mi NW 3.5 mph - N/A   Overcast
7:00 PM 48 °F - 40 °F 65% 30.22 in 34 mi NW 2.3 mph - -   Clear
7:00 PM 48.2 °F - 39.2 °F 71% 30.21 in 6.2 mi NW 2.3 mph - N/A   Overcast
7:30 PM 48.2 °F - 39.2 °F 71% 30.21 in 6.2 mi Calm Calm - N/A   Overcast
8:00 PM 48.2 °F - 39.2 °F 71% 30.21 in 6.2 mi North 2.3 mph - N/A   Overcast
8:30 PM 46.4 °F 45.2 °F 39.2 °F 76% 30.21 in 6.2 mi NNE 3.5 mph - N/A   Overcast
9:00 PM 46.4 °F 45.2 °F 41.0 °F 81% 30.21 in 6.2 mi NNE 3.5 mph - N/A   Unknown
9:30 PM 46.4 °F 45.2 °F 41.0 °F 81% 30.21 in 6.2 mi NE 3.5 mph - N/A   Unknown
10:00 PM 44.6 °F 43.1 °F 39.2 °F 81% 30.24 in 6.2 mi ENE 3.5 mph - N/A   Unknown
10:30 PM 44.6 °F 41.4 °F 41.0 °F 87% 30.24 in 6.2 mi East 5.8 mph - N/A   Unknown
11:00 PM 44.6 °F 42.2 °F 41.0 °F 87% 30.21 in 6.2 mi ENE 4.6 mph - N/A   Unknown
11:30 PM 44.6 °F - 39.2 °F 81% 30.21 in 6.2 mi Calm Calm - N/A   Unknown